Powrót do katalogu

ONDOSAT-OWL-8

AktywnyKrótkofalarstwoVLEO
NORAD 62399·PAYLOAD·🇲🇳 Mongolia
Ta nazwa satelity nie została jeszcze potwierdzona przez oficjalne źródła.

Wystrzelony Dec 21, 2024 z Vandenberg Space Force Base

Loading…

Następne Przeloty (najbliższe 24 godziny)

TLE

ŚwieżeSource: Space-Track

Epoka: Sep 14, 2026, 15:26 UTC

1 62399U 24247Y   26257.64366468  .00039092  00000-0  57063-3 0  9990
2 62399  44.9915 108.9667 0004866 202.3320 157.7362 15.55048389 97304

Śledź ONDOSAT-OWL-8 w czasie rzeczywistym z AllMySat

Download on the App Store